Weather in Takamatsu

Japan     34°18′46″N   134°03′28″E
temp.,
°C
wind,
m/s
gust,
m/s
humid.,
%
clouds,
%
prec.,
mm/h
press.,
hPa
HPBL,
m
28 november, sun
sun2800:00+7w11616 0.0 103432
03:00+6ssw11685 0.0 103432
06:00+5ssw22714 0.0 103454
09:00+9sw11564 0.0 1035325
12:00+11n22410 0.0 10341250
15:00+11nne22380 0.0 10321027
18:00+9sse224620 0.0 103258
21:00+8sse225389 0.0 103251
29 november, mon
mon2900:00+7sse225664 0.0 103242
03:00+6sse225726 0.0 103142
06:00+5s215598 0.0 103134
09:00+9s114898 0.0 1031139
12:00+13nnw11415 0.0 1029801
15:00+13n214314 0.0 1027736
18:00+10e11530 0.0 102836
21:00+9s11600 0.0 102828
30 november, tue
tue3000:00+8s21650 0.0 102824
03:00+7sse22700 0.0 102532
06:00+7s22716 0.0 102427
09:00+10ese1260100 0.0 1022115
12:00+15e235259 0.0 1017444
15:00+18wnw2453100 0.0 1012501
18:00+14se1166100 0.0 101015
21:00+12w71393100 7.2 1010985
1 december, wed
wed100:00+12wsw41196100 15.8 1008925
03:00+10w91680100 17.5 10091554
06:00+8w101758100 0.1 10112022
09:00+8w11175232 0.1 10131953
12:00+9w10174783 0.0 10132017
15:00+8wnw9164698 0.0 10142126
18:00+6wnw8144978 0.0 10171961
21:00+5w7125212 0.0 10191574
2 december, thu
thu200:00+5w6105527 0.0 10191276
03:00+5wnw485825 0.0 1019854
06:00+6w486079 0.0 1020637
09:00+8w475637 0.0 10201354
12:00+10w68504 0.0 10191405
15:00+10w59513 0.0 10181436
18:00+8ssw376153 0.0 1019481
21:00+7ssw376159 0.1 1020329